Home > Weather > Ottawa > Past weeks

Flag for Canada Weather for the Past 2 Weeks in Ottawa, Ontario, Canada

Now
41 °F

Passing clouds.


Feels Like: 35 °F
Forecast: 33 / 60 °F
Wind: 10 mph from East

Location: Ottawa Int'L. Ont.

Current Time: Apr 30, 2016 at 9:08:19 AM

Latest Report: Apr 30, 2016 at 8:00 AM


Visibility: 15 mi

Pressure: 30.30 "Hg

Humidity: 42%

Dew Point: 19 °F

Location of OttawaLocation

Historic Weather in Ottawa — Graph

°F

Ottawa Temperature Yesterday

Maximum temperature yesterday: 55 °F (at 4:00 PM)
Minimum temperature yesterday: 28 °F (at 5:00 AM)
Average temperature yesterday: 43 °F

High & Low Weather Summary for the Past Weeks

 TemperatureHumidityPressure
High73 °F (Apr 17, 4:00 PM)100% (Apr 18, 11:00 PM)30.58 "Hg (Apr 18, 11:00 PM)
Low27 °F (Apr 27, 6:00 AM)14% (Apr 20, 4:00 PM)29.78 "Hg (Apr 22, 7:00 AM)
Average46 °F42%30.16 "Hg
* Reported Apr 15 7:00 AM — Apr 30 7:00 AM, Ottawa, Weather by CustomWeather, © 2016

Note: Actual official high and low records may vary slightly from our data, if they occured in-between our weather recording intervals... More about our weather records

Advertising

Ottawa Weather History for the Previous 24 Hours

Scroll right to see more
 ConditionsComfort  
Time TempWeatherWind HumidityBarometerVisibility
7:00 AM
Sat, Apr 30
37 °FPassing clouds.8 mph56%30.27 "Hg15 mi
6:00 AM32 °FPassing clouds.9 mph64%30.25 "Hg15 mi
5:00 AM32 °FPassing clouds.7 mph69%30.23 "Hg15 mi
4:00 AM32 °FPassing clouds.6 mph64%30.21 "Hg15 mi
3:00 AM34 °FPassing clouds.9 mph60%30.20 "Hg15 mi
2:00 AM36 °FPartly cloudy.5 mph56%30.19 "Hg15 mi
1:00 AM37 °FPassing clouds.3 mph52%30.19 "Hg15 mi
12:00 AM37 °FPassing clouds.7 mph48%30.20 "Hg15 mi
11:00 PM
Fri, Apr 29
45 °FPassing clouds.6 mph34%30.19 "Hg15 mi
10:00 PM45 °FPassing clouds.No wind34%30.18 "Hg15 mi
9:00 PM46 °FPartly sunny.No wind34%30.16 "Hg15 mi
8:00 PM52 °FPartly sunny.3 mph26%30.12 "Hg15 mi
7:00 PM52 °FPartly sunny.7 mph26%30.10 "Hg15 mi
6:00 PM54 °FPartly sunny.5 mph24%30.11 "Hg15 mi
5:00 PM54 °FBroken clouds.6 mph24%30.11 "Hg15 mi
4:00 PM55 °FBroken clouds.6 mph21%30.11 "Hg15 mi
3:00 PM54 °FPartly sunny.8 mph22%30.12 "Hg15 mi
2:00 PM52 °FPartly sunny.7 mph24%30.14 "Hg15 mi
1:00 PM50 °FPartly sunny.9 mph28%30.16 "Hg15 mi
12:00 PM48 °FScattered clouds.12 mph29%30.18 "Hg15 mi
11:00 AM46 °FScattered clouds.12 mph32%30.19 "Hg15 mi
10:00 AM43 °FScattered clouds.14 mph34%30.20 "Hg15 mi
9:00 AM39 °FPartly sunny.12 mph39%30.21 "Hg15 mi
Weather by CustomWeather, © 2016

See weather overviewHow to use our weather pages